Location: Pinon Hills
(34.4429°N, 117.6403°W)
Time: 15:03:19
(UTC-07:00)

Amateur Radio Satellites - All Passes

Search period start: 27 May 2016 14:33
Search period end: 28 May 2016 14:33
Location: Pinon Hills, 34.4429°N, 117.6403°W

Satellite Date Start Highest point End Downlink Frequencies (MHz)
Time Altitude Azimuth
Gurwin Techsat 1B 27 May 14:38:28 14:43:39 54° 260° (W) 14:48:51 435.225
BEESAT 27 May 14:45:31 14:50:06 44° 100° (E) 14:54:39 436.000
JAS-2 27 May 14:55:41 14:58:56 13° 273° (W) 15:02:18 435.910
ITAMSAT 1 27 May 14:58:02 15:03:12 89° 73° (ENE) 15:08:25 435.822/435.867
YUBILEINY 27 May 15:11:02 15:17:34 24° 83° (E) 15:24:05 435.215
Cosmos 2491 27 May 15:13:26 15:22:00 56° 79° (E) 15:30:29 435.465 / 435.565
TISAT 1 27 May 15:16:39 15:18:11 12° 294° (WNW) 15:19:42 437.305
AO-7 27 May 15:28:57 15:37:10 71° 70° (ENE) 15:45:25 29.400- 29.500
AO-85 27 May 15:36:44 15:41:18 89° 227° (SW) 15:45:26 145.980
KKS-1 27 May 15:43:34 15:46:49 20° 95° (E) 15:50:04 437.445
SWISSCUBE 27 May 15:53:48 15:57:57 30° 290° (WNW) 16:02:05 437.505
MOZHAYETS 4 27 May 15:57:59 16:01:39 23° 95° (E) 16:05:18
ITUPSAT 1 27 May 15:59:56 16:04:03 29° 290° (WNW) 16:08:11 437.325
HORYU 2 27 May 16:04:39 16:08:07 23° 69° (ENE) 16:11:35 437.375
Cosmos 2504 27 May 16:18:32 16:21:37 13° 79° (E) 16:24:44 435.465 / 435.565
STARS 27 May 16:19:09 16:22:46 25° 97° (E) 16:26:20 437.465
BEESAT 27 May 16:24:31 16:27:29 17° 294° (WNW) 16:30:26 436.000
RS-15 27 May 16:47:23 16:58:04 54° 109° (ESE) 17:09:18 29.354- 29.394
YUBILEINY 27 May 17:05:05 17:13:37 60° 280° (W) 17:22:12 435.215
Cosmos 2491 27 May 17:11:21 17:18:12 27° 277° (W) 17:25:02 435.465 / 435.565
KKS-1 27 May 17:19:32 17:23:22 30° 289° (WNW) 17:27:12 437.445
NOAA 15 27 May 17:22:01 17:26:36 31° 69° (ENE) 17:31:12 137.62
CUBESAT XI-V 27 May 17:23:21 17:26:54 21° 95° (E) 17:30:24 437.345
AO-7 27 May 17:24:36 17:30:28 21° 265° (W) 17:36:22 29.400- 29.500
NOAA 18 27 May 17:25:11 17:29:46 29° 68° (ENE) 17:34:22 137.9125
Cubesat XI-IV 27 May 17:27:24 17:31:28 23° 67° (ENE) 17:35:34 437.490
MOZHAYETS 4 27 May 17:34:48 17:38:45 28° 289° (WNW) 17:42:43
HORYU 2 27 May 17:40:49 17:44:31 26° 263° (W) 17:48:13 437.375
STARS 27 May 17:55:31 17:58:58 23° 291° (WNW) 18:02:26 437.465
BRITE-PL 27 May 17:55:38 18:01:02 50° 73° (ENE) 18:06:31 437.365/2234.400
Cosmos 2504 27 May 18:06:37 18:13:47 82° 276° (W) 18:21:21 435.465 / 435.565
CUTE-I 27 May 18:12:17 18:17:31 64° 74° (ENE) 18:22:46 437.470
GOMX 1 27 May 18:20:33 18:25:40 42° 73° (ENE) 18:30:45 467.674
M-CUBED/EXP-1 PRIME 27 May 18:34:57 18:36:15 11° 63° (ENE) 18:37:31 437.505
STRAND 1 27 May 18:44:59 18:45:50 10° 91° (E) 18:46:41 437.568
LilacSat-2 27 May 18:46:57 18:50:38 48° 260° (W) 18:54:19 437.200
HO-68 27 May 18:47:06 18:52:03 21° 61° (ENE) 18:56:59 435.675
O/OREOS (USA 219) 27 May 18:59:32 19:03:06 23° 63° (ENE) 19:06:39 437.305
CUBESAT XI-V 27 May 19:00:06 19:04:16 32° 289° (WNW) 19:08:25 437.345
RS-15 27 May 19:00:06 19:10:41 43° 311° (NW) 19:21:54 29.354- 29.394
PCSat 27 May 19:01:03 19:06:18 47° 60° (ENE) 19:11:29 145.827
NOAA 15 27 May 19:01:47 19:06:16 28° 263° (W) 19:10:48 137.62
NOAA 18 27 May 19:05:28 19:10:17 31° 262° (W) 19:15:06 137.9125
Cubesat XI-IV 27 May 19:06:23 19:11:16 38° 262° (W) 19:16:12 437.490
DOVE 4 27 May 19:09:05 19:14:16 61° 75° (ENE) 19:19:17 437.250
BRITE-PL 27 May 19:35:44 19:39:40 19° 268° (W) 19:43:40 437.365/2234.400
CANX-2 27 May 19:36:52 19:40:35 32° 72° (ENE) 19:44:20 2200.000
CINEMA 3 27 May 19:39:55 19:44:17 36° 73° (ENE) 19:48:28 145.822/145.860
SEEDS 27 May 19:40:00 19:43:09 21° 70° (ENE) 19:46:19 437.485
CUTE-I 27 May 19:55:40 19:57:56 13° 268° (W) 20:00:12 437.470
AUBIESAT-1 27 May 19:59:25 20:03:39 82° 253° (WSW) 20:07:35 437.475
GOMX 1 27 May 19:59:37 20:03:48 22° 266° (W) 20:07:56 467.674
BEESAT 2 27 May 20:01:55 20:03:38 12° 49° (NE) 20:05:21 435.950
CUTE 1.7 + AOD 2 27 May 20:03:38 20:07:45 59° 76° (ENE) 20:11:54 437.475
M-CUBED/EXP-1 PRIME 27 May 20:06:15 20:10:28 53° 255° (WSW) 20:14:23 437.505
Cosmos 2504 27 May 20:06:55 20:08:27 11° 296° (WNW) 20:10:00 435.465 / 435.565
Oscar 11 27 May 20:11:36 20:12:31 11° 66° (ENE) 20:13:27 145.826/435.025
STRAND 1 27 May 20:20:18 20:25:26 72° 285° (WNW) 20:30:34 437.568
COMPASS 1 27 May 20:24:52 20:28:52 52° 75° (ENE) 20:32:55 437.405
ZACube-1 27 May 20:24:53 20:26:57 13° 68° (ENE) 20:29:01 437.345
AAUSAT CUBESAT 2 27 May 20:27:23 20:31:16 43° 74° (ENE) 20:35:12 437.432
PHONESAT 2.4 27 May 20:27:35 20:29:04 13° 142° (SE) 20:30:34 2401.200-2431.200
CUBEBUG 2 27 May 20:28:51 20:32:53 35° 73° (ENE) 20:36:48 437.445
AIST 1 27 May 20:31:12 20:34:25 20° 88° (E) 20:37:39
HO-68 27 May 20:31:59 20:39:04 68° 257° (WSW) 20:46:12 435.675
BEESAT 3 27 May 20:34:44 20:38:34 47° 58° (ENE) 20:42:22 437.485
PRISM 27 May 20:34:59 20:38:27 25° 97° (E) 20:41:54 437.425
O/OREOS (USA 219) 27 May 20:38:41 20:42:25 27° 258° (WSW) 20:46:09 437.305
ISS 27 May 20:42:08 20:45:16 45° 133° (SE) 20:48:24 145.825
PCSat 27 May 20:45:31 20:49:16 19° 255° (WSW) 20:53:00 145.827
DOVE 4 27 May 20:49:40 20:52:10 13° 268° (W) 20:54:40 437.250
UWE-3 27 May 20:56:53 21:01:05 51° 75° (ENE) 21:05:12 435.000/436.395/437.385
DELFI C3 27 May 20:57:41 21:00:05 16° 69° (ENE) 21:02:29 145.870
GONETS M04 27 May 21:00:25 21:07:39 30° 84° (E) 21:14:50
FUNcube-1 27 May 21:00:55 21:04:44 33° 73° (ENE) 21:08:30 145.935
CANX-2 27 May 21:13:48 21:16:29 17° 266° (W) 21:19:11 2200.000
SEEDS 27 May 21:15:15 21:18:41 25° 264° (W) 21:22:09 437.485
CINEMA 3 27 May 21:18:04 21:21:25 19° 265° (W) 21:24:41 145.822/145.860
RS-15 27 May 21:21:40 21:27:48 15° 343° (NNW) 21:34:04 29.354- 29.394
BEESAT 2 27 May 21:37:53 21:41:46 53° 245° (WSW) 21:45:38 435.950
Oscar 11 27 May 21:43:55 21:48:07 56° 259° (W) 21:52:22 145.826/435.025
DANDE 27 May 21:44:10 21:46:16 11° 60° (ENE) 21:48:19 436.750
CUSAT 1 27 May 21:46:23 21:51:46 21° 65° (ENE) 21:56:30 437.405
ZACube-1 27 May 21:58:51 22:02:53 41° 261° (W) 22:06:52 437.345
PHONESAT 2.4 27 May 22:02:20 22:05:28 87° 151° (SSE) 22:08:36 2401.200-2431.200
HUMSAT D 27 May 22:05:05 22:08:59 45° 74° (ENE) 22:12:53 437.325/437.525
AAUSAT CUBESAT 2 27 May 22:05:28 22:06:56 12° 268° (W) 22:08:25 437.432
CUBEBUG 2 27 May 22:06:51 22:09:33 16° 266° (W) 22:12:13 437.445
AIST 1 27 May 22:08:06 22:11:48 26° 283° (WNW) 22:15:32
PRISM 27 May 22:10:27 22:13:35 21° 291° (WNW) 22:16:43 437.425
AIST 2 27 May 22:12:00 22:15:01 19° 52° (NE) 22:18:01 435.215
BEESAT 3 27 May 22:14:52 22:15:47 11° 252° (WSW) 22:16:43 437.485
ANTELSAT 27 May 22:19:14 22:22:18 19° 95° (E) 22:25:23 437.575/2403.000
ISS 27 May 22:19:38 22:21:52 17° 329° (NNW) 22:24:07 145.825
DELFI C3 27 May 22:31:09 22:34:40 30° 263° (W) 22:38:12 145.870
UWE-3 27 May 22:37:00 22:37:45 10° 268° (W) 22:38:31 435.000/436.395/437.385
FUNcube-1 27 May 22:38:28 22:41:02 16° 266° (W) 22:43:34 145.935
Cosmos 2499 27 May 22:40:20 22:47:29 80° 94° (E) 22:55:10 435.465 / 435.565
AISAT 27 May 22:47:11 22:50:12 18° 68° (ENE) 22:53:13 437.250
UKube-1 27 May 22:54:40 22:56:45 13° 66° (ENE) 22:58:51 .
GONETS M04 27 May 22:55:28 23:03:57 51° 281° (W) 23:12:27
50 SAT 27 May 23:05:47 23:08:50 26° 72° (ENE) 23:11:53 437.505
UNISAT 6 27 May 23:13:33 23:17:53 86° 106° (ESE) 23:22:16 437.425
NANOSAT C BR1 27 May 23:15:33 23:17:10 12° 93° (E) 23:18:48 145.865
TIGRISAT 27 May 23:21:01 23:25:19 82° 283° (WNW) 23:29:42 435.000
DANDE 27 May 23:22:30 23:30:51 63° 78° (ENE) 23:38:08 436.750
ESTCUBE 1 27 May 23:24:54 23:29:22 70° 76° (ENE) 23:33:53 437.505/2401.250
CUSAT 1 27 May 23:27:12 23:34:39 64° 267° (W) 23:40:40 437.405
CUBEBUG 1 27 May 23:37:58 23:42:22 67° 75° (ENE) 23:46:46 437.445
DX 1 27 May 23:39:25 23:43:42 57° 74° (ENE) 23:48:01 434.975-435.025
PHONESAT 2.4 27 May 23:39:37 23:42:26 29° 351° (N) 23:45:14 2401.200-2431.200
RS-15 27 May 23:40:56 23:47:56 16° 22° (NNE) 23:54:59 29.354- 29.394
HUMSAT D 27 May 23:43:54 23:44:49 11° 268° (W) 23:45:43 437.325/437.525
VELOX 1 27 May 23:45:41 23:50:09 81° 75° (ENE) 23:54:38 145.980
AIST 2 27 May 23:49:49 23:53:33 33° 247° (WSW) 23:57:16 435.215
DUCHIFAT 1 27 May 23:52:07 23:55:53 32° 98° (E) 23:59:38 145.980
ANTELSAT 27 May 23:55:14 23:59:00 30° 288° (WNW) 00:02:50 437.575/2403.000
SPROUT 28 May 00:03:48 00:07:55 46° 74° (ENE) 00:12:02 437.525
BUGSAT 1 28 May 00:09:26 00:12:36 22° 96° (E) 00:15:43 437.445
SO-50 28 May 00:20:20 00:25:14 86° 118° (ESE) 00:30:10 436.795
AISAT 28 May 00:22:18 00:26:22 35° 261° (W) 00:30:29 437.250
JAS-2 28 May 00:22:30 00:26:55 17° 88° (E) 00:31:02 435.910
TISAT 1 28 May 00:27:36 00:30:54 23° 70° (ENE) 00:34:12 437.305
UKube-1 28 May 00:28:13 00:32:22 45° 260° (W) 00:36:32 .
POPSAT HIP 1 28 May 00:30:20 00:34:31 73° 284° (WNW) 00:38:41 437.405
QB50P1 28 May 00:30:42 00:34:53 71° 285° (WNW) 00:39:03 145.935-145.965
QB50P2 28 May 00:33:09 00:37:18 62° 285° (WNW) 00:41:27 145.880/145.840
POLYITAN 1 28 May 00:35:37 00:39:45 60° 285° (WNW) 00:43:53 437.675
Cosmos 2499 28 May 00:37:39 00:41:36 15° 294° (WNW) 00:45:40 435.465 / 435.565
50 SAT 28 May 00:40:28 00:42:33 15° 266° (W) 00:44:39 437.505
NANOSAT C BR1 28 May 00:49:07 00:53:05 43° 286° (WNW) 00:57:02 145.865
Oscar 19 28 May 00:56:35 00:57:24 10° 91° (E) 00:58:15 437.125/150
DANDE 28 May 01:06:38 01:12:53 24° 277° (W) 01:18:36 436.750
PHONESAT 2.4 28 May 01:16:53 01:19:40 28° 8° (N) 01:22:26 2401.200-2431.200
SWISSCUBE 28 May 01:20:00 01:23:17 19° 67° (ENE) 01:26:35 437.505
DX 1 28 May 01:20:00 01:20:11 10° 268° (W) 01:20:22 434.975-435.025
ITUPSAT 1 28 May 01:26:17 01:29:38 19° 67° (ENE) 01:33:01 437.325
DUCHIFAT 1 28 May 01:28:38 01:31:17 17° 292° (WNW) 01:33:56 145.980
SPROUT 28 May 01:42:29 01:44:04 12° 267° (W) 01:45:39 437.525
BUGSAT 1 28 May 01:44:44 01:47:51 22° 290° (WNW) 01:50:57 437.445
BEESAT 28 May 01:48:32 01:52:48 34° 71° (ENE) 01:57:05 436.000
RS-15 28 May 01:52:53 02:04:42 48° 51° (NE) 02:16:22 29.354- 29.394
TISAT 1 28 May 02:02:58 02:06:25 24° 264° (W) 02:09:52 437.305
SO-50 28 May 02:04:20 02:06:21 12° 315° (NW) 02:08:22 436.795
JAS-2 28 May 02:05:20 02:12:40 70° 287° (WNW) 02:19:08 435.910
Cosmos 2491 28 May 02:22:25 02:23:01 10° 76° (ENE) 02:23:38 435.465 / 435.565
Oscar 19 28 May 02:32:02 02:37:10 72° 285° (WNW) 02:42:16 437.125/150
KKS-1 28 May 02:39:33 02:41:33 13° 66° (ENE) 02:43:33 437.445
PHONESAT 2.4 28 May 02:53:31 02:56:38 88° 9° (N) 02:59:45 2401.200-2431.200
SWISSCUBE 28 May 02:56:23 03:00:46 37° 261° (W) 03:05:11 437.505
MOZHAYETS 4 28 May 02:57:33 03:00:06 15° 67° (ENE) 03:02:38
Gurwin Techsat 1B 28 May 02:58:07 03:03:28 82° 102° (ESE) 03:08:47 435.225
ITUPSAT 1 28 May 03:02:49 03:07:11 36° 261° (W) 03:11:35 437.325
STARS 28 May 03:13:23 03:15:57 15° 67° (ENE) 03:18:30 437.465
ISS 28 May 03:13:28 03:15:20 14° 29° (NNE) 03:17:13 145.825
ITAMSAT 1 28 May 03:14:38 03:19:36 42° 99° (E) 03:24:32 435.822/435.867
YUBILEINY 28 May 03:19:27 03:28:05 58° 80° (E) 03:36:42 435.215
BEESAT 28 May 03:27:08 03:30:36 20° 265° (W) 03:34:06 436.000
AO-7 28 May 03:35:24 03:42:22 29° 97° (E) 03:49:18 29.400- 29.500
JAS-2 28 May 03:54:17 03:56:08 11° 305° (NW) 03:57:56 435.910
Cosmos 2504 28 May 04:02:35 04:09:59 32° 74° (ENE) 04:17:36 435.465 / 435.565
RS-15 28 May 04:05:36 04:17:11 50° 252° (WSW) 04:28:38 29.354- 29.394
Cosmos 2491 28 May 04:09:25 04:18:11 73° 93° (E) 04:26:59 435.465 / 435.565
KKS-1 28 May 04:13:17 04:17:38 51° 260° (W) 04:22:00 437.445
CUBESAT XI-V 28 May 04:24:18 04:26:45 14° 66° (ENE) 04:29:12 437.345
PHONESAT 2.4 28 May 04:31:24 04:33:03 14° 217° (SW) 04:34:42 2401.200-2431.200
MOZHAYETS 4 28 May 04:32:30 04:36:50 44° 261° (W) 04:41:13
Gurwin Techsat 1B 28 May 04:41:18 04:42:39 11° 298° (WNW) 04:44:01 435.225
STARS 28 May 04:47:46 04:51:56 40° 261° (W) 04:56:06 437.465
ISS 28 May 04:48:50 04:52:04 62° 225° (SW) 04:55:16 145.825
ITAMSAT 1 28 May 04:54:58 04:58:43 20° 294° (WNW) 05:02:26 435.822/435.867
JUGNU 28 May 05:07:14 05:09:17 12° 165° (SSE) 05:11:20 437.505
YUBILEINY 28 May 05:17:27 05:24:11 26° 277° (W) 05:30:58 435.215
AO-7 28 May 05:27:17 05:35:22 56° 293° (WNW) 05:43:27 29.400- 29.500
HORYU 2 28 May 05:34:17 05:38:44 75° 102° (ESE) 05:43:10 437.375
NOAA 15 28 May 05:41:55 05:44:50 15° 93° (E) 05:47:43 137.62
AO-85 28 May 05:45:54 05:51:19 74° 117° (ESE) 05:56:43 145.980
Cubesat XI-IV 28 May 05:49:54 05:51:33 11° 91° (E) 05:53:11 437.490
NOAA 18 28 May 05:51:37 05:54:49 16° 94° (E) 05:58:01 137.9125
Cosmos 2504 28 May 05:55:22 06:03:30 51° 270° (W) 06:11:56 435.465 / 435.565
STRAND 1 28 May 05:57:26 05:59:05 11° 63° (ENE) 06:00:44 437.568
CUBESAT XI-V 28 May 05:59:09 06:03:39 49° 261° (W) 06:08:13 437.345
BRITE-PL 28 May 06:05:59 06:09:31 19° 92° (E) 06:12:50 437.365/2234.400
Cosmos 2491 28 May 06:09:33 06:15:47 21° 291° (WNW) 06:22:02 435.465 / 435.565
LilacSat-2 28 May 06:24:20 06:27:15 21° 96° (E) 06:30:11 437.200
GOMX 1 28 May 06:28:33 06:30:38 13° 91° (E) 06:32:40 467.674
CUTE-I 28 May 06:33:13 06:38:04 34° 98° (E) 06:42:54 437.470
JUGNU 28 May 06:53:34 06:57:34 18° 175° (S) 07:01:35 437.505
SRMSAT 28 May 07:02:58 07:03:52 10° 164° (SSE) 07:04:47 437.500
DOVE 4 28 May 07:13:18 07:16:14 18° 94° (E) 07:19:06 437.250
GONETS M04 28 May 07:19:43 07:20:01 10° 62° (ENE) 07:20:18
NOAA 15 28 May 07:19:43 07:24:53 55° 287° (WNW) 07:30:01 137.62
PRISM 28 May 07:22:44 07:24:23 12° 66° (ENE) 07:26:04 437.425
Cubesat XI-IV 28 May 07:26:42 07:32:02 72° 285° (WNW) 07:37:22 437.490
AO-85 28 May 07:28:58 07:32:20 16° 313° (NW) 07:35:41 145.980
NOAA 18 28 May 07:30:24 07:35:45 56° 287° (WNW) 07:41:06 137.9125
STRAND 1 28 May 07:32:30 07:37:34 73° 258° (WSW) 07:42:41 437.568
BRITE-PL 28 May 07:43:34 07:48:07 35° 289° (WNW) 07:52:20 437.365/2234.400
CUTE 1.7 + AOD 2 28 May 07:53:40 07:55:51 14° 93° (E) 07:58:01 437.475
LilacSat-2 28 May 07:58:38 08:01:25 20° 289° (WNW) 08:04:13 437.200
HO-68 28 May 08:04:14 08:10:16 29° 97° (E) 08:16:17 435.675
GOMX 1 28 May 08:04:40 08:09:02 43° 287° (WNW) 08:13:08 467.674
CUTE-I 28 May 08:13:33 08:17:54 26° 292° (WNW) 08:22:14 437.470
COMPASS 1 28 May 08:13:40 08:14:50 11° 92° (E) 08:16:01 437.405
AIST 1 28 May 08:18:05 08:22:18 50° 81° (E) 08:26:28
Cosmos 2499 28 May 08:35:32 08:42:24 25° 72° (ENE) 08:49:20 435.465 / 435.565
JUGNU 28 May 08:41:53 08:45:55 19° 185° (S) 08:49:55 437.505
SRMSAT 28 May 08:48:27 08:52:18 18° 173° (S) 08:56:09 437.500
DOVE 4 28 May 08:50:16 08:53:59 29° 289° (WNW) 08:57:35 437.250
UWE-3 28 May 08:51:34 08:53:32 13° 93° (E) 08:55:29 435.000/436.395/437.385
PRISM 28 May 08:55:16 08:59:15 46° 260° (W) 09:03:16 437.425
SO-50 28 May 08:55:51 08:59:56 29° 53° (NE) 09:03:52 436.795
CANX-2 28 May 09:00:28 09:04:45 76° 284° (WNW) 09:09:02 2200.000
SEEDS 28 May 09:01:41 09:05:56 67° 101° (E) 09:10:10 437.485
O/OREOS (USA 219) 28 May 09:07:24 09:11:50 51° 106° (ESE) 09:16:15 437.305
GONETS M04 28 May 09:09:49 09:18:30 69° 82° (E) 09:27:07
CINEMA 3 28 May 09:14:55 09:18:59 54° 285° (WNW) 09:23:02 145.822/145.860
AUBIESAT-1 28 May 09:16:10 09:19:24 55° 289° (WNW) 09:22:40 437.475
ANTELSAT 28 May 09:16:42 09:18:00 11° 66° (ENE) 09:19:17 437.575/2403.000
M-CUBED/EXP-1 PRIME 28 May 09:23:48 09:26:45 32° 291° (WNW) 09:29:42 437.505
CUTE 1.7 + AOD 2 28 May 09:27:48 09:31:49 40° 286° (WNW) 09:35:50 437.475
Oscar 11 28 May 09:34:46 09:38:42 33° 98° (E) 09:42:36 145.826/435.025
PCSat 28 May 09:38:41 09:44:06 90° 293° (WNW) 09:49:34 145.827
COMPASS 1 28 May 09:46:33 09:50:37 48° 286° (WNW) 09:54:40 437.405
AAUSAT CUBESAT 2 28 May 09:48:15 09:52:23 58° 284° (WNW) 09:56:30 437.432
ZACube-1 28 May 09:50:16 09:54:19 44° 100° (E) 09:58:24 437.345
HO-68 28 May 09:51:19 09:58:04 47° 292° (WNW) 10:04:50 435.675
AIST 1 28 May 09:59:00 09:59:20 10° 275° (W) 09:59:41
CUBEBUG 2 28 May 09:59:08 10:03:14 58° 285° (WNW) 10:07:24 437.445
UNISAT 6 28 May 10:08:50 10:13:02 47° 74° (ENE) 10:17:10 437.425
DELFI C3 28 May 10:11:54 10:15:43 40° 99° (E) 10:19:30 145.870
TIGRISAT 28 May 10:16:02 10:20:18 54° 75° (ENE) 10:24:30 435.000
BEESAT 3 28 May 10:22:58 10:25:47 19° 110° (ESE) 10:28:37 437.485
UWE-3 28 May 10:26:11 10:30:07 40° 286° (WNW) 10:34:07 435.000/436.395/437.385
Cosmos 2499 28 May 10:27:25 10:35:59 64° 268° (W) 10:44:42 435.465 / 435.565
FUNcube-1 28 May 10:27:49 10:31:59 66° 284° (WNW) 10:36:14 145.935
JUGNU 28 May 10:32:03 10:34:12 12° 195° (SSW) 10:36:20 437.505
SO-50 28 May 10:36:28 10:40:16 25° 249° (WSW) 10:43:57 436.795
SRMSAT 28 May 10:36:44 10:40:47 19° 183° (S) 10:44:50 437.500
DUCHIFAT 1 28 May 10:41:36 10:44:12 16° 68° (ENE) 10:46:47 145.980
CUSAT 1 28 May 10:43:21 10:48:04 23° 83° (E) 10:53:30 437.405
O/OREOS (USA 219) 28 May 10:49:16 10:51:31 13° 301° (WNW) 10:53:46 437.305
ANTELSAT 28 May 10:49:56 10:54:13 54° 260° (W) 10:58:28 437.575/2403.000
BUGSAT 1 28 May 10:57:54 10:58:57 11° 66° (ENE) 11:00:00 437.445
GONETS M04 28 May 11:08:27 11:14:23 21° 279° (W) 11:20:20
Oscar 11 28 May 11:11:37 11:14:33 18° 291° (WNW) 11:17:29 145.826/435.025
POPSAT HIP 1 28 May 11:19:01 11:23:07 50° 75° (ENE) 11:27:13 437.405
QB50P1 28 May 11:19:19 11:23:26 51° 74° (ENE) 11:27:32 145.935-145.965
QB50P2 28 May 11:21:52 11:26:02 59° 75° (ENE) 11:30:12 145.880/145.840
ESTCUBE 1 28 May 11:21:54 11:25:11 19° 95° (E) 11:28:27 437.505/2401.250
POLYITAN 1 28 May 11:24:20 11:28:30 60° 76° (ENE) 11:32:41 437.675
PCSat 28 May 11:26:04 11:28:14 12° 313° (NW) 11:30:25 145.827
BEESAT 2 28 May 11:26:11 11:30:06 62° 116° (ESE) 11:34:02 435.950
HUMSAT D 28 May 11:27:08 11:31:13 54° 285° (WNW) 11:35:19 437.325/437.525
ZACube-1 28 May 11:28:18 11:30:12 13° 292° (WNW) 11:32:06 437.345
CUBEBUG 1 28 May 11:31:30 11:34:12 16° 94° (E) 11:36:52 437.445
DX 1 28 May 11:33:04 11:35:01 13° 93° (E) 11:36:57 434.975-435.025
NANOSAT C BR1 28 May 11:37:07 11:41:21 82° 75° (ENE) 11:45:34 145.865
VELOX 1 28 May 11:40:19 11:43:34 20° 95° (E) 11:46:46 145.980
UNISAT 6 28 May 11:48:19 11:49:56 12° 267° (W) 11:51:33 437.425
DELFI C3 28 May 11:48:21 11:50:11 13° 292° (WNW) 11:52:01 145.870
SPROUT 28 May 11:56:27 11:56:55 10° 92° (E) 11:57:23 437.525
TIGRISAT 28 May 11:56:48 11:57:13 10° 268° (W) 11:57:39 435.000
BEESAT 3 28 May 11:59:52 12:03:16 28° 305° (NW) 12:06:42 437.485
Oscar 19 28 May 12:09:35 12:11:36 12° 63° (ENE) 12:13:36 437.125/150
50 SAT 28 May 12:11:28 12:15:09 56° 101° (E) 12:18:48 437.505
JAS-2 28 May 12:11:42 12:18:22 40° 68° (ENE) 12:25:28 435.910
AISAT 28 May 12:15:38 12:19:59 55° 101° (E) 12:24:16 437.250
DUCHIFAT 1 28 May 12:15:43 12:19:34 34° 262° (W) 12:23:26 145.980
UKube-1 28 May 12:18:52 12:22:51 36° 99° (E) 12:26:49 .
CUSAT 1 28 May 12:23:24 12:29:23 54° 283° (WNW) 12:36:48 437.405
DANDE 28 May 12:26:06 12:31:16 77° 95° (E) 12:38:11 436.750
SRMSAT 28 May 12:26:35 12:29:14 13° 193° (SSW) 12:31:53 437.500
BUGSAT 1 28 May 12:29:43 12:33:50 53° 260° (W) 12:37:56 437.445
ESTCUBE 1 28 May 12:57:57 13:02:00 32° 289° (WNW) 13:06:01 437.505/2401.250
POPSAT HIP 1 28 May 12:58:10 12:59:08 11° 268° (W) 13:00:05 437.405
QB50P1 28 May 12:58:46 12:59:27 10° 268° (W) 13:00:07 145.935-145.965
CUBEBUG 1 28 May 13:06:34 13:10:34 35° 288° (WNW) 13:14:31 437.445
BEESAT 2 28 May 13:07:12 13:08:19 11° 312° (NW) 13:09:26 435.950
DX 1 28 May 13:07:15 13:11:23 44° 287° (WNW) 13:15:30 434.975-435.025
VELOX 1 28 May 13:16:10 13:20:01 30° 289° (WNW) 13:23:49 145.980
SPROUT 28 May 13:29:00 13:33:08 52° 285° (WNW) 13:37:15 437.525
AIST 2 28 May 13:43:19 13:47:25 68° 300° (WNW) 13:51:32 435.215
Oscar 19 28 May 13:45:04 13:50:15 72° 258° (WSW) 13:55:27 437.125/150
TISAT 1 28 May 13:49:29 13:53:38 65° 101° (E) 13:57:45 437.305
BEESAT 28 May 13:54:24 13:55:53 11° 92° (E) 13:57:22 436.000
AISAT 28 May 13:54:31 13:55:55 11° 295° (WNW) 13:57:20 437.250
UKube-1 28 May 13:55:55 13:58:34 16° 293° (WNW) 14:01:13 .
JAS-2 28 May 13:56:39 14:03:14 38° 265° (W) 14:10:20 435.910
DANDE 28 May 14:12:22 14:15:21 14° 299° (WNW) 14:18:41 436.750
Gurwin Techsat 1B 28 May 14:15:33 14:20:51 90° 97° (E) 14:26:12 435.225
AO-85 28 May 14:22:36 14:26:16 23° 50° (NE) 14:29:41 145.980
YUBILEINY 28 May 14:27:34 14:28:53 10° 76° (ENE) 14:30:13 435.215
